Regional Weather Roundup
Issued by NWS Jackson, KY

Home | Current Version | Previous Version | Graphics & Text | Print | Product List | Glossary On
Versions: 1 2 3 4 5 6 7 8 9 10 11 12 13 14 15 16 17 18 19 20 21 22 23 24 25 26 27 28
000
ASUS43 KJKL 202310
RWRJKL

EAST KENTUCKY HOURLY WEATHER ROUNDUP
NATIONAL WEATHER SERVICE JACKSON KY
600 PM EST MON NOV 20 2017

NOTE: "FAIR" INDICATES FEW OR NO CLOUDS BELOW 12,000 FEET WITH
NO SIGNIFICANT WEATHER AND/OR OBSTRUCTIONS TO VISIBILITY.

* THESE REPORTS ARE NOT UNDER NWS QUALITY CONTROL AND MAY NOT
  REPORT WEATHER SUCH AS PRECIPITATION AND FOG.

KYZ079-080-083-085-087-088-110-112-115-119-120-210000
...EASTERN KENTUCKY...

CITY           SKY/WX    TMP DP  RH WIND       PRES   REMARKS
JACKSON        CLOUDY    45  21  38 CALM      30.11F
LONDON         CLOUDY    44  23  43 CALM      30.12S
SOMERSET*      CLOUDY    43  23  45 CALM      30.13F
MONTICELLO*    CLOUDY    39  28  64 CALM      30.13F
WILLIAMSBURG*  CLOUDY    46  23  39 SE5       30.13S
MIDDLESBORO*   CLOUDY    42  30  64 CALM      30.15S
HARLAN APT*    CLOUDY    46  21  36 CALM      30.14S
PIKE CO APT*     N/A     47  21  36 SE3       30.11F
BIG SANDY APT* CLOUDY    45  23  43 CALM      30.12F
MOREHEAD APT*  CLOUDY    43  21  42 S5        30.13S
$$

KYZ035-036-041-042-044-050-067-078-099-210000
...CENTRAL KENTUCKY...

CITY           SKY/WX    TMP DP  RH WIND       PRES   REMARKS
MT STERLING*   CLOUDY    43  25  49 S6        30.12F
DANVILLE*      CLOUDY    43  23  45 S6        30.10F
LEXINGTON      CLOUDY    42  26  53 S7        30.09F
FRANKFORT      CLOUDY    44  25  47 SE5       30.08F
LOUISVILLE     MOCLDY    47  24  40 SE6       30.08S
LEBANON*         N/A     43  23  45 CALM      30.09F
GLASGOW*       CLEAR     46  21  37 SE3       30.09F
BOWLING GREEN  CLOUDY    47  23  38 S5        30.09F
$$

KYZ091>093-OHZ055-061-077-WVZ005-015-034-035-042-210000
...SOUTHERN OHIO/WEST VIRGINIA...

CITY           SKY/WX    TMP DP  RH WIND       PRES   REMARKS
COVINGTON      CLOUDY    39  27  62 S7        30.06F WCI  34
COLUMBUS       MOCLDY    42  26  53 S10       30.06F
DAYTON         CLOUDY    41  26  55 S10       30.04S
WILMINGTON     CLOUDY    40  28  62 S10       30.07S WCI  33
HUNTINGTON     CLOUDY    44  20  38 SE5       30.12F
CHARLESTON     CLOUDY    43  21  41 CALM      30.14S
PINEVILLE*     CLOUDY    36  30  79 MISG      30.19S
BECKLEY        CLOUDY    39  19  44 SE3       30.13R
BLUEFIELD      CLOUDY    40  20  44 SW3       30.14S
LOGAN CO APT*    N/A     45  21  39 CALM      30.11F
$$

VAZ002-007-008-TNZ017-027-036-066-071-210000
...SOUTHWEST VIRGINIA/EAST TENNESSEE...

CITY           SKY/WX    TMP DP  RH WIND       PRES   REMARKS
WISE*          CLOUDY    41  21  45 S6        30.14S
JONESVILLE*      N/A     41  28  60 CALM      30.17S
ABINGDON*      CLOUDY    42  26  53 CALM      30.15S
BRISTOL        CLOUDY    41  25  53 N3        30.15S
MORRISTOWN*    CLEAR     45  21  39 CALM      30.14F
SEVIERVILLE*   CLEAR     43  32  65 CALM      30.14F
KNOXVILLE      CLOUDY    47  31  53 NE5       30.13F
LAFOLLETTE*    CLEAR     41  28  60 CALM      30.18S
OAK RIDGE      CLEAR     43  31  62 CALM      30.16F
CROSSVILLE     CLOUDY    45  21  38 S3        30.12F
NASHVILLE      MOCLDY    49  24  37 CALM      30.10F
$$

...KEY TO REMARKS...
VSB - VISIBILITY IN MILES
WCI - WIND CHILL INDEX
HX  - HEAT INDEX

$$




USA.gov is the U.S. government's official web portal to all federal, state and local government web resources and services.